Hourly Data Report for October 05, 2015

All times are specified in Local Standard Time (LST). Add 1 hour to adjust for Daylight Saving Time where and when it is observed.

TORONTO INTL A
ONTARIO

43°40'36.000" N
79°37'50.000" W
173.40 m
6158731
71624
YYZ

Download Data

Hourly Data (October 2015)
Hourly Data Report for October 5, 2015
Temp Definition
°C
Dew Point Temp Definition
°C
Rel Hum Definition
%
Wind Dir Definition
10's deg

Wind Spd Definition
km/h
Visibility Definition
km
Stn Press Definition
kPa
Hmdx Definition


Wind Chill Definition


Weather Definition


TIME
00:00 Legend Double Dagger 10.8 6.8 76 1 7 24.1 100.25     LegendNANA
01:00 Legend Double Dagger 10.6 6.6 76 1 10 24.1 100.22     Mostly Cloudy
02:00 Legend Double Dagger 11.5 7.5 76 1 8 24.1 100.21     LegendNANA
03:00 Legend Double Dagger 11.6 7.2 74 36 11 24.1 100.20     LegendNANA
04:00 Legend Double Dagger 11.9 7.5 74 36 10 24.1 100.19     Cloudy
05:00 Legend Double Dagger 12.1 7.5 73 36 10 24.1 100.22     LegendNANA
06:00 Legend Double Dagger 11.5 8.7 83 35 13 24.1 100.25     Rain
07:00 Legend Double Dagger 11.2 8.8 85 1 10 24.1 100.27     Cloudy
08:00 Legend Double Dagger 10.7 9.5 92 1 12 8.1 100.28     Rain,Fog
09:00 Legend Double Dagger 10.9 9.7 92 36 8 8.1 100.29     Drizzle,Fog
10:00 Legend Double Dagger 11.4 10.0 91 1 4 9.7 100.29     Fog
11:00 Legend Double Dagger 11.8 10.2 90 36 3 6.4 100.26     Drizzle,Fog
12:00 Legend Double Dagger 12.5 10.8 89 36 3 9.7 100.22     Fog
13:00 Legend Double Dagger 12.9 10.8 87 36 3 9.7 100.15     Drizzle,Fog
14:00 Legend Double Dagger 13.4 11.0 85 36 1 9.7 100.10     Fog
15:00 Legend Double Dagger 13.9 11.1 83 36 3 9.7 100.06     Fog
16:00 Legend Double Dagger 14.2 11.2 82 0 1 9.7 100.04     Fog
17:00 Legend Double Dagger 14.1 11.5 84 15 6 9.7 100.03     Fog
18:00 Legend Double Dagger 14.0 11.7 86 36 2 9.7 100.03     Fog
19:00 Legend Double Dagger 13.8 11.5 86 15 7 9.7 100.05     Fog
20:00 Legend Double Dagger 13.6 11.5 87 17 5 9.7 100.04     Haze
21:00 Legend Double Dagger 13.7 11.4 86 1 9 16.1 100.02     LegendNANA
22:00 Legend Double Dagger 13.5 11.2 86 1 8 16.1 100.00     Cloudy
23:00 Legend Double Dagger 13.2 10.9 86 1 10 16.1 100.00     LegendNANA

Notes on Data Quality.

Legend

  • E = Estimated
  • M = Missing
  • NA = Not Available
  • ‡ = Partner data that is not subject to review by the National Climate Archives
Date modified: